,,Stat6,,Stat2,,Stat8,,Stat9,,Stat10,,Wind1,,Wind1,
time,status,PA1M_AVG,status,PR1M_SUM,status,RH1M_AVG,status,SR1M_AVG,status,TA1M_AVG,status,W1dAve1m,status,W1sAve1m,
2006-01-17, 00:00:00,VALID,919.169,VALID,0,VALID,100,VALID,0.135847,VALID,18.7899,VALID,7,VALID,0.629836,
2006-01-17, 00:01:00,VALID,919.167,VALID,0,VALID,100,VALID,0.101885,VALID,18.7799,VALID,344,VALID,0.893852,
2006-01-17, 00:02:00,VALID,919.158,VALID,0,VALID,100,VALID,0.152827,VALID,18.7511,VALID,295,VALID,0.536175,
2006-01-17, 00:03:00,VALID,919.162,VALID,0,VALID,100,VALID,0.152827,VALID,18.7439,VALID,291,VALID,0.130526,
2006-01-17, 00:04:00,VALID,919.168,VALID,0,VALID,100,VALID,0.152827,VALID,18.7663,VALID,11,VALID,0.528764,
2006-01-17, 00:05:00,VALID,919.179,VALID,0,VALID,100,VALID,0.135847,VALID,18.77,VALID,8,VALID,0.102134,
2006-01-17, 00:06:00,VALID,919.174,VALID,0,VALID,100,VALID,0.237732,VALID,18.7748,VALID,9,VALID,0.117001,
2006-01-17, 00:07:00,VALID,919.164,VALID,0,VALID,100,VALID,0.254712,VALID,18.7882,VALID,9,VALID,0.0282012,
2006-01-17, 00:08:00,VALID,919.156,VALID,0,VALID,100,VALID,0.288674,VALID,18.8041,VALID,9,VALID,0.573785,
2006-01-17, 00:09:00,VALID,919.13,VALID,0,VALID,100,VALID,0.254712,VALID,18.8108,VALID,11,VALID,0.937682,
2006-01-17, 00:10:00,VALID,919.126,VALID,0,VALID,100,VALID,0.288674,VALID,18.8141,VALID,15,VALID,1.32682,
2006-01-17, 00:11:00,VALID,919.126,VALID,0,VALID,100,VALID,0.271693,VALID,18.8399,VALID,25,VALID,1.43259,
2006-01-17, 00:12:00,VALID,919.135,VALID,0,VALID,100,VALID,0.254712,VALID,18.8201,VALID,15,VALID,0.823933,
2006-01-17, 00:13:00,VALID,919.168,VALID,0,VALID,100,VALID,0.220751,VALID,18.8268,VALID,16,VALID,0.28125,
2006-01-17, 00:14:00,VALID,919.174,VALID,0,VALID,100,VALID,0.288674,VALID,18.8332,VALID,85,VALID,0.425959,
2006-01-17, 00:15:00,VALID,919.182,VALID,0,VALID,100,VALID,0.288674,VALID,18.8161,VALID,203,VALID,0.364462,
2006-01-17, 00:16:00,VALID,919.171,VALID,0,VALID,100,VALID,0.271693,VALID,18.8136,VALID,202,VALID,0.303943,
2006-01-17, 00:17:00,VALID,919.161,VALID,0,VALID,100,VALID,0.271693,VALID,18.8263,VALID,190,VALID,0.302871,
2006-01-17, 00:18:00,VALID,919.166,VALID,0,VALID,100,VALID,0.271693,VALID,18.8235,VALID,31,VALID,0.46503,
2006-01-17, 00:19:00,VALID,919.164,VALID,0,VALID,100,VALID,0.254712,VALID,18.8335,VALID,34,VALID,0.522675,
2006-01-17, 00:20:00,VALID,919.155,VALID,0,VALID,100,VALID,0.288674,VALID,18.8335,VALID,37,VALID,0.0997456,
2006-01-17, 00:21:00,VALID,919.148,VALID,0,VALID,100,VALID,0.186789,VALID,18.8411,VALID,37,VALID,0,
2006-01-17, 00:22:00,VALID,919.144,VALID,0,VALID,100,VALID,0.20377,VALID,18.8339,VALID,41,VALID,0.25,
2006-01-17, 00:23:00,VALID,919.133,VALID,0,VALID,100,VALID,0.20377,VALID,18.8247,VALID,50,VALID,0.201265,
2006-01-17, 00:24:00,VALID,919.134,VALID,0,VALID,100,VALID,0.186789,VALID,18.815,VALID,50,VALID,0.00163517,
2006-01-17, 00:25:00,VALID,919.124,VALID,0,VALID,100,VALID,0.20377,VALID,18.7889,VALID,84,VALID,0.194531,
2006-01-17, 00:26:00,VALID,919.131,VALID,0,VALID,100,VALID,0.186789,VALID,18.7921,VALID,156,VALID,0.231076,
2006-01-17, 00:27:00,VALID,919.112,VALID,0,VALID,100,VALID,0.169808,VALID,18.7695,VALID,160,VALID,0.221839,
2006-01-17, 00:28:00,VALID,919.124,VALID,0,VALID,100,VALID,0.169808,VALID,18.7672,VALID,137,VALID,0.220022,
2006-01-17, 00:29:00,VALID,919.098,VALID,0,VALID,100,VALID,0.152827,VALID,18.7866,VALID,92,VALID,0.356534,
2006-01-17, 00:30:00,VALID,919.086,VALID,0,VALID,100,VALID,0.169808,VALID,18.767,VALID,28,VALID,0.537348,
2006-01-17, 00:31:00,VALID,919.072,VALID,0.2,VALID,100,VALID,0.186789,VALID,18.7896,VALID,15,VALID,0.441939,
2006-01-17, 00:32:00,VALID,919.066,VALID,0,VALID,100,VALID,0.169808,VALID,18.8018,VALID,17,VALID,0.633539,
2006-01-17, 00:33:00,VALID,919.047,VALID,0,VALID,100,VALID,0.135847,VALID,18.8217,VALID,30,VALID,0.564546,
2006-01-17, 00:34:00,VALID,919.049,VALID,0,VALID,100,VALID,0.186789,VALID,18.8018,VALID,27,VALID,0.507086,
2006-01-17, 00:35:00,VALID,919.046,VALID,0,VALID,100,VALID,0.135847,VALID,18.8113,VALID,27,VALID,0.253811,
2006-01-17, 00:36:00,VALID,919.053,VALID,0,VALID,100,VALID,0.237732,VALID,18.8397,VALID,27,VALID,0.0861151,
2006-01-17, 00:37:00,VALID,919.053,VALID,0,VALID,100,VALID,0.288674,VALID,18.8491,VALID,27,VALID,0.0409226,
2006-01-17, 00:38:00,VALID,919.046,VALID,0,VALID,100,VALID,0.271693,VALID,18.8365,VALID,34,VALID,0.244965,
2006-01-17, 00:39:00,VALID,919.041,VALID,0,VALID,100,VALID,0.271693,VALID,18.8265,VALID,34,VALID,0.243862,
2006-01-17, 00:40:00,VALID,919.032,VALID,0,VALID,100,VALID,0.254712,VALID,18.8134,VALID,111,VALID,0.258575,
2006-01-17, 00:41:00,VALID,919.032,VALID,0,VALID,100,VALID,0.271693,VALID,18.8076,VALID,116,VALID,0.00976563,
2006-01-17, 00:42:00,VALID,919.008,VALID,0,VALID,100,VALID,0.271693,VALID,18.8106,VALID,116,VALID,0.0167683,
2006-01-17, 00:43:00,VALID,918.977,VALID,0,VALID,100,VALID,0.254712,VALID,18.8201,VALID,116,VALID,0,
2006-01-17, 00:44:00,VALID,918.975,VALID,0,VALID,100,VALID,0.237732,VALID,18.83,VALID,116,VALID,0.0966797,
2006-01-17, 00:45:00,VALID,918.957,VALID,0,VALID,100,VALID,0.254712,VALID,18.8268,VALID,116,VALID,0.0652344,
2006-01-17, 00:46:00,VALID,918.968,VALID,0,VALID,100,VALID,0.254712,VALID,18.8337,VALID,116,VALID,0,
2006-01-17, 00:47:00,VALID,918.946,VALID,0,VALID,100,VALID,0.254712,VALID,18.824,VALID,116,VALID,0.00816761,
2006-01-17, 00:48:00,VALID,918.942,VALID,0,VALID,100,VALID,0.254712,VALID,18.788,VALID,116,VALID,0.0293899,
2006-01-17, 00:49:00,VALID,918.918,VALID,0,VALID,100,VALID,0.237732,VALID,18.772,VALID,112,VALID,0.19455,
2006-01-17, 00:50:00,VALID,918.923,VALID,0,VALID,100,VALID,0.271693,VALID,18.7591,VALID,112,VALID,0.0199219,
2006-01-17, 00:51:00,VALID,918.908,VALID,0,VALID,100,VALID,0.356597,VALID,18.7415,VALID,112,VALID,0.00327035,
2006-01-17, 00:52:00,VALID,918.902,VALID,0,VALID,100,VALID,0.356597,VALID,18.7281,VALID,112,VALID,0,
2006-01-17, 00:53:00,VALID,918.918,VALID,0,VALID,100,VALID,0.373578,VALID,18.7284,VALID,112,VALID,0,
2006-01-17, 00:54:00,VALID,918.907,VALID,0,VALID,100,VALID,0.339617,VALID,18.7286,VALID,112,VALID,0.0234375,
2006-01-17, 00:55:00,VALID,918.9,VALID,0.2,VALID,100,VALID,0.373578,VALID,18.751,VALID,101,VALID,0.123402,
2006-01-17, 00:56:00,VALID,918.887,VALID,0,VALID,100,VALID,0.339617,VALID,18.7706,VALID,72,VALID,0.274554,
2006-01-17, 00:57:00,VALID,918.879,VALID,0,VALID,100,VALID,0.356597,VALID,18.8126,VALID,61,VALID,0.468229,
2006-01-17, 00:58:00,VALID,918.871,VALID,0,VALID,100,VALID,0.373578,VALID,18.8159,VALID,45,VALID,0.380208,
2006-01-17, 00:59:00,VALID,918.867,VALID,0,VALID,100,VALID,0.305655,VALID,18.8196,VALID,42,VALID,0.436098,
2006-01-17, 01:00:00,VALID,918.852,VALID,0,VALID,100,VALID,0.390559,VALID,18.8193,VALID,29,VALID,0.731707,
2006-01-17, 01:01:00,VALID,918.844,VALID,0,VALID,100,VALID,0.339617,VALID,18.8191,VALID,25,VALID,0.369978,
2006-01-17, 01:02:00,VALID,918.843,VALID,0,VALID,100,VALID,0.339617,VALID,18.8221,VALID,25,VALID,0.0875727,
2006-01-17, 01:03:00,VALID,918.827,VALID,0.2,VALID,100,VALID,0.339617,VALID,18.8357,VALID,25,VALID,0.054497,
2006-01-17, 01:04:00,VALID,918.807,VALID,0,VALID,100,VALID,0.339617,VALID,18.8288,VALID,25,VALID,0.0321378,
2006-01-17, 01:05:00,VALID,918.781,VALID,0,VALID,100,VALID,0.339617,VALID,18.8231,VALID,25,VALID,0.0724927,
2006-01-17, 01:06:00,VALID,918.768,VALID,0.2,VALID,100,VALID,0.254712,VALID,18.8071,VALID,25,VALID,0.0565044,
2006-01-17, 01:07:00,VALID,918.749,VALID,0,VALID,100,VALID,0.254712,VALID,18.7974,VALID,25,VALID,0.0446429,
2006-01-17, 01:08:00,VALID,918.75,VALID,0,VALID,100,VALID,0.271693,VALID,18.8009,VALID,25,VALID,0.000868056,
2006-01-17, 01:09:00,VALID,918.734,VALID,0.2,VALID,100,VALID,0.271693,VALID,18.8141,VALID,25,VALID,0,
2006-01-17, 01:10:00,VALID,918.734,VALID,0,VALID,100,VALID,0.254712,VALID,18.8076,VALID,25,VALID,0,
2006-01-17, 01:11:00,VALID,918.728,VALID,0.2,VALID,100,VALID,0.271693,VALID,18.7972,VALID,25,VALID,0,
2006-01-17, 01:12:00,VALID,918.718,VALID,0,VALID,100,VALID,0.271693,VALID,18.7847,VALID,25,VALID,0.0430596,
2006-01-17, 01:13:00,VALID,918.709,VALID,0,VALID,100,VALID,0.237732,VALID,18.7887,VALID,25,VALID,0.0523098,
2006-01-17, 01:14:00,VALID,918.697,VALID,0,VALID,100,VALID,0.254712,VALID,18.7785,VALID,21,VALID,0.476758,
2006-01-17, 01:15:00,VALID,918.683,VALID,0.2,VALID,100,VALID,0.271693,VALID,18.8074,VALID,21,VALID,0.450174,
2006-01-17, 01:16:00,VALID,918.671,VALID,0,VALID,100,VALID,0.220751,VALID,18.8016,VALID,21,VALID,0.654474,
2006-01-17, 01:17:00,VALID,918.656,VALID,0,VALID,100,VALID,0.220751,VALID,18.8048,VALID,15,VALID,0.459413,
2006-01-17, 01:18:00,VALID,918.638,VALID,0,VALID,100,VALID,0.237732,VALID,18.8046,VALID,14,VALID,0.046503,
2006-01-17, 01:19:00,VALID,918.631,VALID,0.2,VALID,100,VALID,0.220751,VALID,18.8175,VALID,14,VALID,0.136242,
2006-01-17, 01:20:00,VALID,918.607,VALID,0,VALID,100,VALID,0.254712,VALID,18.8208,VALID,14,VALID,0.467901,
2006-01-17, 01:21:00,VALID,918.604,VALID,0,VALID,100,VALID,0.152827,VALID,18.8058,VALID,11,VALID,0.39611,
2006-01-17, 01:22:00,VALID,918.596,VALID,0,VALID,100,VALID,0.152827,VALID,18.8153,VALID,13,VALID,0.423118,
2006-01-17, 01:23:00,VALID,918.601,VALID,0,VALID,100,VALID,0.169808,VALID,18.8217,VALID,13,VALID,0,
2006-01-17, 01:24:00,VALID,918.581,VALID,0.2,VALID,100,VALID,0.152827,VALID,18.8145,VALID,13,VALID,0.00106534,
2006-01-17, 01:25:00,VALID,918.572,VALID,0,VALID,100,VALID,0.135847,VALID,18.8148,VALID,13,VALID,0.0526414,
2006-01-17, 01:26:00,VALID,918.559,VALID,0,VALID,100,VALID,0.169808,VALID,18.8053,VALID,13,VALID,0.313953,
2006-01-17, 01:27:00,VALID,918.55,VALID,0,VALID,100,VALID,0.152827,VALID,18.8123,VALID,13,VALID,0.607777,
2006-01-17, 01:28:00,VALID,918.542,VALID,0,VALID,100,VALID,0.152827,VALID,18.8028,VALID,13,VALID,0.458519,
2006-01-17, 01:29:00,VALID,918.541,VALID,0,VALID,100,VALID,0.152827,VALID,18.8023,VALID,13,VALID,0.0148983,
2006-01-17, 01:30:00,VALID,918.533,VALID,0,VALID,100,VALID,0.152827,VALID,18.7894,VALID,13,VALID,0.125,
2006-01-17, 01:31:00,VALID,918.529,VALID,0,VALID,100,VALID,0.118866,VALID,18.7864,VALID,13,VALID,0.0267361,
2006-01-17, 01:32:00,VALID,918.528,VALID,0,VALID,100,VALID,0.135847,VALID,18.7899,VALID,13,VALID,0.0385298,
2006-01-17, 01:33:00,VALID,918.511,VALID,0,VALID,100,VALID,0.101885,VALID,18.7862,VALID,13,VALID,0.0920759,
2006-01-17, 01:34:00,VALID,918.496,VALID,0.2,VALID,100,VALID,0.118866,VALID,18.809,VALID,13,VALID,0.00327035,
2006-01-17, 01:35:00,VALID,918.49,VALID,0,VALID,100,VALID,0.169808,VALID,18.8123,VALID,13,VALID,0,
2006-01-17, 01:36:00,VALID,918.446,VALID,0,VALID,100,VALID,0.186789,VALID,18.8245,VALID,13,VALID,0.148247,
2006-01-17, 01:37:00,VALID,918.432,VALID,0,VALID,100,VALID,0.169808,VALID,18.8319,VALID,12,VALID,0.286659,
2006-01-17, 01:38:00,VALID,918.41,VALID,0,VALID,100,VALID,0.101885,VALID,18.803,VALID,11,VALID,0.0178571,
2006-01-17, 01:39:00,VALID,918.392,VALID,0,VALID,100,VALID,0.135847,VALID,18.7864,VALID,11,VALID,0,
2006-01-17, 01:40:00,VALID,918.385,VALID,0,VALID,100,VALID,0.169808,VALID,18.7668,VALID,11,VALID,0.0728561,
2006-01-17, 01:41:00,VALID,918.356,VALID,0,VALID,100,VALID,0.186789,VALID,18.7603,VALID,10,VALID,0.434832,
2006-01-17, 01:42:00,VALID,918.327,VALID,0,VALID,100,VALID,0.169808,VALID,18.7638,VALID,9,VALID,0.305035,
2006-01-17, 01:43:00,VALID,918.332,VALID,0,VALID,100,VALID,0.101885,VALID,18.7543,VALID,8,VALID,0.446911,
2006-01-17, 01:44:00,VALID,918.308,VALID,0,VALID,100,VALID,0.118866,VALID,18.7573,VALID,10,VALID,0.581499,
2006-01-17, 01:45:00,VALID,918.289,VALID,0,VALID,100,VALID,0.152827,VALID,18.7541,VALID,337,VALID,0.396257,
2006-01-17, 01:46:00,VALID,918.29,VALID,0,VALID,100,VALID,0.101885,VALID,18.722,VALID,9,VALID,0.769345,
2006-01-17, 01:47:00,VALID,918.304,VALID,0,VALID,100,VALID,0.152827,VALID,18.715,VALID,7,VALID,0.404916,
2006-01-17, 01:48:00,VALID,918.292,VALID,0,VALID,100,VALID,0.101885,VALID,18.7215,VALID,7,VALID,0.508398,
2006-01-17, 01:49:00,VALID,918.27,VALID,0,VALID,100,VALID,0.152827,VALID,18.6859,VALID,17,VALID,0.519903,
2006-01-17, 01:50:00,VALID,918.256,VALID,0,VALID,100,VALID,0.152827,VALID,18.6954,VALID,16,VALID,0.632449,
2006-01-17, 01:51:00,VALID,918.252,VALID,0.2,VALID,100,VALID,0.152827,VALID,18.715,VALID,16,VALID,0.480824,
2006-01-17, 01:52:00,VALID,918.244,VALID,0,VALID,100,VALID,0.152827,VALID,18.7474,VALID,21,VALID,0.709604,
2006-01-17, 01:53:00,VALID,918.227,VALID,0,VALID,100,VALID,0.169808,VALID,18.764,VALID,25,VALID,0.656977,
2006-01-17, 01:54:00,VALID,918.22,VALID,0,VALID,100,VALID,0.169808,VALID,18.7578,VALID,26,VALID,0.710029,
2006-01-17, 01:55:00,VALID,918.204,VALID,0,VALID,100,VALID,0.186789,VALID,18.7633,VALID,22,VALID,0.59811,
2006-01-17, 01:56:00,VALID,918.189,VALID,0,VALID,100,VALID,0.20377,VALID,18.7866,VALID,21,VALID,0.48492,
2006-01-17, 01:57:00,VALID,918.177,VALID,0,VALID,100,VALID,0.169808,VALID,18.7998,VALID,21,VALID,0.384448,
2006-01-17, 01:58:00,VALID,918.166,VALID,0,VALID,100,VALID,0.20377,VALID,18.8026,VALID,21,VALID,0.260156,
2006-01-17, 01:59:00,VALID,918.154,VALID,0,VALID,100,VALID,0.186789,VALID,18.806,VALID,19,VALID,0.710582,
2006-01-17, 02:00:00,VALID,918.147,VALID,0,VALID,100,VALID,0.169808,VALID,18.7996,VALID,21,VALID,0.552649,
2006-01-17, 02:01:00,VALID,918.121,VALID,0,VALID,100,VALID,0.186789,VALID,18.7866,VALID,19,VALID,1.06123,
2006-01-17, 02:02:00,VALID,918.113,VALID,0,VALID,100,VALID,0.20377,VALID,18.7571,VALID,19,VALID,0.907848,
2006-01-17, 02:03:00,VALID,918.12,VALID,0,VALID,100,VALID,0.135847,VALID,18.7541,VALID,15,VALID,0.252539,
2006-01-17, 02:04:00,VALID,918.108,VALID,0,VALID,100,VALID,0.152827,VALID,18.7739,VALID,15,VALID,0,
2006-01-17, 02:05:00,VALID,918.095,VALID,0,VALID,100,VALID,0.152827,VALID,18.7737,VALID,15,VALID,0.0490785,
2006-01-17, 02:06:00,VALID,918.088,VALID,0,VALID,100,VALID,0.135847,VALID,18.7603,VALID,15,VALID,0.252907,
2006-01-17, 02:07:00,VALID,918.075,VALID,0,VALID,100,VALID,0.152827,VALID,18.7737,VALID,349,VALID,0.371761,
2006-01-17, 02:08:00,VALID,918.054,VALID,0.2,VALID,100,VALID,0.135847,VALID,18.7319,VALID,352,VALID,0.20846,
2006-01-17, 02:09:00,VALID,918.062,VALID,0,VALID,100,VALID,0.118866,VALID,18.706,VALID,358,VALID,0.188988,
2006-01-17, 02:10:00,VALID,918.05,VALID,0,VALID,100,VALID,0.152827,VALID,18.6862,VALID,360,VALID,0.0650436,
2006-01-17, 02:11:00,VALID,918.042,VALID,0,VALID,100,VALID,0.135847,VALID,18.7023,VALID,360,VALID,0.159884,
2006-01-17, 02:12:00,VALID,918.035,VALID,0,VALID,100,VALID,0.152827,VALID,18.6959,VALID,3,VALID,0.677912,
2006-01-17, 02:13:00,VALID,918.021,VALID,0,VALID,100,VALID,0.152827,VALID,18.7277,VALID,3,VALID,0.0287064,
2006-01-17, 02:14:00,VALID,918.029,VALID,0,VALID,100,VALID,0.152827,VALID,18.7409,VALID,3,VALID,0.0767578,
2006-01-17, 02:15:00,VALID,918.028,VALID,0,VALID,100,VALID,0.186789,VALID,18.7478,VALID,3,VALID,0.16915,
2006-01-17, 02:16:00,VALID,918.013,VALID,0,VALID,100,VALID,0.152827,VALID,18.7481,VALID,3,VALID,0,
2006-01-17, 02:17:00,VALID,918.004,VALID,0,VALID,100,VALID,0.186789,VALID,18.7444,VALID,3,VALID,0.000952744,
2006-01-17, 02:18:00,VALID,917.987,VALID,0,VALID,100,VALID,0.237732,VALID,18.7349,VALID,3,VALID,0,
2006-01-17, 02:19:00,VALID,917.976,VALID,0,VALID,100,VALID,0.152827,VALID,18.7351,VALID,3,VALID,0.00887784,
2006-01-17, 02:20:00,VALID,917.967,VALID,0,VALID,100,VALID,0.20377,VALID,18.7384,VALID,3,VALID,0.415334,
2006-01-17, 02:21:00,VALID,917.963,VALID,0,VALID,100,VALID,0.271693,VALID,18.7236,VALID,5,VALID,0.535974,
2006-01-17, 02:22:00,VALID,917.938,VALID,0,VALID,100,VALID,0.305655,VALID,18.7432,VALID,13,VALID,0.411519,
2006-01-17, 02:23:00,VALID,917.927,VALID,0,VALID,100,VALID,0.237732,VALID,18.7432,VALID,20,VALID,0.796684,
2006-01-17, 02:24:00,VALID,917.906,VALID,0,VALID,100,VALID,0.305655,VALID,18.74,VALID,10,VALID,0.809956,
2006-01-17, 02:25:00,VALID,917.9,VALID,0,VALID,100,VALID,0.339617,VALID,18.7395,VALID,9,VALID,0.489901,
2006-01-17, 02:26:00,VALID,917.901,VALID,0,VALID,100,VALID,0.288674,VALID,18.74,VALID,11,VALID,0.148438,
2006-01-17, 02:27:00,VALID,917.885,VALID,0,VALID,100,VALID,0.305655,VALID,18.7273,VALID,11,VALID,0.428354,
2006-01-17, 02:28:00,VALID,917.874,VALID,0,VALID,100,VALID,0.322636,VALID,18.7464,VALID,11,VALID,0.244048,
2006-01-17, 02:29:00,VALID,917.834,VALID,0,VALID,100,VALID,0.271693,VALID,18.7693,VALID,13,VALID,0.605378,
2006-01-17, 02:30:00,VALID,917.832,VALID,0,VALID,100,VALID,0.322636,VALID,18.7589,VALID,16,VALID,0.612326,
2006-01-17, 02:31:00,VALID,917.809,VALID,0,VALID,100,VALID,0.288674,VALID,18.7626,VALID,11,VALID,0.523801,
2006-01-17, 02:32:00,VALID,917.777,VALID,0,VALID,100,VALID,0.339617,VALID,18.7658,VALID,4,VALID,0.0349507,
2006-01-17, 02:33:00,VALID,917.761,VALID,0,VALID,100,VALID,0.322636,VALID,18.7753,VALID,10,VALID,0.265997,
2006-01-17, 02:34:00,VALID,917.75,VALID,0,VALID,100,VALID,0.339617,VALID,18.7755,VALID,10,VALID,0.0428819,
2006-01-17, 02:35:00,VALID,917.737,VALID,0.2,VALID,100,VALID,0.305655,VALID,18.7619,VALID,10,VALID,0.0571057,
2006-01-17, 02:36:00,VALID,917.729,VALID,0,VALID,100,VALID,0.288674,VALID,18.7658,VALID,10,VALID,0.162642,
2006-01-17, 02:37:00,VALID,917.712,VALID,0,VALID,100,VALID,0.339617,VALID,18.7524,VALID,10,VALID,0.234375,
2006-01-17, 02:38:00,VALID,917.715,VALID,0,VALID,100,VALID,0.356597,VALID,18.7626,VALID,10,VALID,0,
2006-01-17, 02:39:00,VALID,917.706,VALID,0,VALID,100,VALID,0.339617,VALID,18.7529,VALID,10,VALID,0.00408381,
2006-01-17, 02:40:00,VALID,917.687,VALID,0,VALID,100,VALID,0.339617,VALID,18.7658,VALID,12,VALID,0.505716,
2006-01-17, 02:41:00,VALID,917.672,VALID,0,VALID,100,VALID,0.288674,VALID,18.7268,VALID,31,VALID,0.417081,
2006-01-17, 02:42:00,VALID,917.652,VALID,0,VALID,100,VALID,0.288674,VALID,18.7074,VALID,18,VALID,0.50186,
2006-01-17, 02:43:01,VALID,917.629,VALID,0,VALID,100,VALID,0.271693,VALID,18.7171,VALID,16,VALID,0.835756,
2006-01-17, 02:44:00,VALID,917.614,VALID,0,VALID,100,VALID,0.339617,VALID,18.6977,VALID,17,VALID,0.914971,
2006-01-17, 02:45:00,VALID,917.615,VALID,0,VALID,100,VALID,0.288674,VALID,18.7208,VALID,16,VALID,0.463956,
2006-01-17, 02:46:01,VALID,917.61,VALID,0,VALID,100,VALID,0.339617,VALID,18.7335,VALID,16,VALID,0.430753,
2006-01-17, 02:47:00,VALID,917.605,VALID,0,VALID,100,VALID,0.254712,VALID,18.7626,VALID,16,VALID,0.36701,
2006-01-17, 02:48:00,VALID,917.593,VALID,0,VALID,100,VALID,0.339617,VALID,18.7596,VALID,16,VALID,0.457317,
2006-01-17, 02:49:00,VALID,917.575,VALID,0,VALID,100,VALID,0.373578,VALID,18.7526,VALID,21,VALID,0.79524,
2006-01-17, 02:50:00,VALID,917.578,VALID,0,VALID,100,VALID,0.305655,VALID,18.7462,VALID,23,VALID,0.190358,
2006-01-17, 02:51:01,VALID,917.579,VALID,0,VALID,100,VALID,0.237732,VALID,18.7635,VALID,23,VALID,0,
2006-01-17, 02:52:01,VALID,917.583,VALID,0,VALID,100,VALID,0.237732,VALID,18.7668,VALID,23,VALID,0.164971,
2006-01-17, 02:53:00,VALID,917.586,VALID,0,VALID,100,VALID,0.254712,VALID,18.7959,VALID,23,VALID,0,
2006-01-17, 02:54:01,VALID,917.576,VALID,0,VALID,100,VALID,0.288674,VALID,18.7896,VALID,23,VALID,0.0766369,
2006-01-17, 02:55:00,VALID,917.578,VALID,0,VALID,100,VALID,0.20377,VALID,18.7769,VALID,23,VALID,0.256793,
2006-01-17, 02:56:00,VALID,917.582,VALID,0,VALID,100,VALID,0.271693,VALID,18.7675,VALID,23,VALID,0.537202,
2006-01-17, 02:57:01,VALID,917.563,VALID,0,VALID,100,VALID,0.186789,VALID,18.761,VALID,24,VALID,0.729353,
2006-01-17, 02:58:00,VALID,917.574,VALID,0,VALID,100,VALID,0.237732,VALID,18.7414,VALID,20,VALID,0.875363,
2006-01-17, 02:59:00,VALID,917.58,VALID,0,VALID,100,VALID,0.237732,VALID,18.7508,VALID,23,VALID,0.886433,
2006-01-17, 03:00:00,VALID,917.574,VALID,0,VALID,100,VALID,0.237732,VALID,18.767,VALID,31,VALID,0.592634,
2006-01-17, 03:01:00,VALID,917.569,VALID,0,VALID,100,VALID,0.220751,VALID,18.7672,VALID,10,VALID,0.634084,
2006-01-17, 03:02:00,VALID,917.563,VALID,0,VALID,100,VALID,0.186789,VALID,18.7474,VALID,9,VALID,0.336133,
2006-01-17, 03:03:01,VALID,917.564,VALID,0,VALID,100,VALID,0.220751,VALID,18.7314,VALID,330,VALID,0.230273,
2006-01-17, 03:04:00,VALID,917.552,VALID,0,VALID,100,VALID,0.186789,VALID,18.6892,VALID,289,VALID,0.450457,
2006-01-17, 03:05:00,VALID,917.549,VALID,0,VALID,100,VALID,0.220751,VALID,18.6792,VALID,286,VALID,0.16654,
2006-01-17, 03:06:00,VALID,917.538,VALID,0,VALID,100,VALID,0.339617,VALID,18.6982,VALID,2,VALID,0.605378,
2006-01-17, 03:07:01,VALID,917.523,VALID,0,VALID,100,VALID,0.373578,VALID,18.6915,VALID,27,VALID,0.21875,
2006-01-17, 03:08:00,VALID,917.516,VALID,0,VALID,100,VALID,0.373578,VALID,18.6949,VALID,8,VALID,0.659091,
2006-01-17, 03:09:00,VALID,917.495,VALID,0,VALID,100,VALID,0.373578,VALID,18.6591,VALID,18,VALID,0.711133,
2006-01-17, 03:10:00,VALID,917.495,VALID,0,VALID,100,VALID,0.390559,VALID,18.6589,VALID,26,VALID,0.793423,
2006-01-17, 03:11:00,VALID,917.489,VALID,0,VALID,100,VALID,0.339617,VALID,18.6788,VALID,24,VALID,0.41282,
2006-01-17, 03:12:00,VALID,917.49,VALID,0,VALID,100,VALID,0.271693,VALID,18.6783,VALID,29,VALID,0.639205,
2006-01-17, 03:13:00,VALID,917.473,VALID,0,VALID,100,VALID,0.339617,VALID,18.6947,VALID,14,VALID,0.710565,
2006-01-17, 03:14:01,VALID,917.479,VALID,0,VALID,100,VALID,0.390559,VALID,18.6751,VALID,14,VALID,0.684837,
2006-01-17, 03:15:00,VALID,917.47,VALID,0,VALID,100,VALID,0.305655,VALID,18.6751,VALID,354,VALID,0.273624,
2006-01-17, 03:16:01,VALID,917.484,VALID,0,VALID,100,VALID,0.288674,VALID,18.6658,VALID,357,VALID,0.479992,
2006-01-17, 03:17:01,VALID,917.486,VALID,0,VALID,100,VALID,0.305655,VALID,18.6658,VALID,9,VALID,0.56577,
2006-01-17, 03:18:00,VALID,917.497,VALID,0,VALID,100,VALID,0.339617,VALID,18.6714,VALID,11,VALID,0.50327,
2006-01-17, 03:19:01,VALID,917.513,VALID,0,VALID,100,VALID,0.373578,VALID,18.6621,VALID,17,VALID,0.626334,
2006-01-17, 03:20:01,VALID,917.512,VALID,0,VALID,100,VALID,0.40754,VALID,18.6815,VALID,3,VALID,0.334413,
2006-01-17, 03:21:00,VALID,917.517,VALID,0,VALID,100,VALID,0.356597,VALID,18.7104,VALID,3,VALID,0.0955078,
2006-01-17, 03:22:01,VALID,917.523,VALID,0,VALID,100,VALID,0.40754,VALID,18.7067,VALID,7,VALID,0.408067,
2006-01-17, 03:23:00,VALID,917.523,VALID,0,VALID,100,VALID,0.373578,VALID,18.7295,VALID,10,VALID,0.0895579,
2006-01-17, 03:24:00,VALID,917.537,VALID,0,VALID,100,VALID,0.322636,VALID,18.7494,VALID,11,VALID,0.478824,
2006-01-17, 03:25:01,VALID,917.521,VALID,0,VALID,100,VALID,0.390559,VALID,18.737,VALID,18,VALID,0.886896,
2006-01-17, 03:26:00,VALID,917.508,VALID,0,VALID,100,VALID,0.373578,VALID,18.7236,VALID,18,VALID,0.883523,
2006-01-17, 03:27:01,VALID,917.499,VALID,0,VALID,100,VALID,0.390559,VALID,18.73,VALID,24,VALID,0.976372,
2006-01-17, 03:28:00,VALID,917.492,VALID,0,VALID,100,VALID,0.40754,VALID,18.7496,VALID,25,VALID,1.18235,
2006-01-17, 03:29:01,VALID,917.483,VALID,0,VALID,100,VALID,0.390559,VALID,18.7561,VALID,24,VALID,1.26429,
2006-01-17, 03:30:01,VALID,917.476,VALID,0,VALID,100,VALID,0.424521,VALID,18.7817,VALID,24,VALID,0.809659,
2006-01-17, 03:31:00,VALID,917.475,VALID,0,VALID,100,VALID,0.458482,VALID,18.7785,VALID,17,VALID,0.712358,
2006-01-17, 03:32:00,VALID,917.477,VALID,0,VALID,100,VALID,0.441502,VALID,18.775,VALID,27,VALID,1.0293,
2006-01-17, 03:33:00,VALID,917.474,VALID,0,VALID,100,VALID,0.458482,VALID,18.7817,VALID,24,VALID,0.9375,
2006-01-17, 03:34:00,VALID,917.475,VALID,0,VALID,100,VALID,0.458482,VALID,18.7817,VALID,23,VALID,0.729048,
2006-01-17, 03:35:00,VALID,917.47,VALID,0,VALID,100,VALID,0.424521,VALID,18.7755,VALID,24,VALID,0.210938,
2006-01-17, 03:36:01,VALID,917.459,VALID,0,VALID,100,VALID,0.322636,VALID,18.764,VALID,23,VALID,0.148056,
2006-01-17, 03:37:00,VALID,917.473,VALID,0,VALID,100,VALID,0.356597,VALID,18.7252,VALID,23,VALID,0.22832,
2006-01-17, 03:38:00,VALID,917.476,VALID,0,VALID,100,VALID,0.424521,VALID,18.7153,VALID,23,VALID,0.39755,
2006-01-17, 03:39:01,VALID,917.483,VALID,0,VALID,100,VALID,0.339617,VALID,18.7187,VALID,23,VALID,0.307813,
2006-01-17, 03:40:00,VALID,917.468,VALID,0,VALID,100,VALID,0.339617,VALID,18.7185,VALID,27,VALID,0.6252,
2006-01-17, 03:41:00,VALID,917.484,VALID,0,VALID,100,VALID,0.40754,VALID,18.7123,VALID,17,VALID,0.254092,
2006-01-17, 03:42:00,VALID,917.482,VALID,0,VALID,100,VALID,0.305655,VALID,18.7118,VALID,8,VALID,0.338281,